Gonzales, LA

11:52 PM CDT on April 30, 2017 (GMT -0500)
Gonzales

Weather History for KL38 - November, 2013

Change the Weather History Date:

Saturday, November 23, 2013

  Actual Average (KBTR) Record (KBTR)
Temperature  
Mean Temperature 56 °F -  
Max Temperature 64 °F 68 °F 85 °F (1955)
Min Temperature 47 °F 45 °F 28 °F (1956)
Degree Days  
Heating Degree Days 9    
Growing Degree Days 6 (Base 50)    
Moisture  
Dew Point 55 °F    
Average Humidity 91    
Maximum Humidity 97    
Minimum Humidity 72    
Precipitation  
Precipitation 0.01 in - - ()
Sea Level Pressure  
Sea Level Pressure 30.24 in    
Wind  
Wind Speed 6 mph (North)    
Max Wind Speed 14 mph    
Max Gust Speed 24 mph    
Visibility 9 miles    
Events Rain    
Averages and records for this station are not official NWS values.
T = Trace of Precipitation, MM = Missing Value Source: NWS Daily Summary

Daily Weather History Graph

Daily Weather History Graph

Search for Another Location

Airport or City:

Trip Planner

Search our weather history database for the weather conditions in past years. The results will help you decide how hot, cold, wet, or windy it might be!

Date:

Astronomy

Nov. 23, 2013 Rise Set
Actual Time 6:36 AM CST 5:04 PM CST
Civil Twilight 6:10 AM CST 5:30 PM CST
Nautical Twilight 5:41 AM CST 5:59 PM CST
Astronomical Twilight 5:12 AM CST 6:28 PM CST
Moon 10:23 PM CST (11/23) 11:01 AM CST (11/23)
Length of Visible Light 11h 19m
Length of Day
10h 28m
Waning Gibbous, 69% of the Moon is Illuminated
Nov 23
Waning Gibbous
Nov 25
Last Quarter
Dec 2
New
Dec 9
First Quarter
Dec 17
Full

Hourly Weather History & Observations

Time (CST) Temp. Dew Point Humidity Pressure Visibility Wind Dir Wind Speed Gust Speed Precip Events Conditions
12:15 AM 63.9 °F 62.6 °F 96% 30.18 in 10.0 mi Calm Calm - N/A   Overcast
12:35 AM 63.9 °F 62.6 °F 96% 30.18 in 10.0 mi NNE 4.6 mph - N/A   Overcast
12:55 AM 63.9 °F 62.4 °F 95% 30.18 in 10.0 mi NNE 3.5 mph - N/A   Overcast
1:15 AM 63.9 °F 62.2 °F 94% 30.17 in 10.0 mi NNE 4.6 mph - N/A   Overcast
1:35 AM 64.0 °F 62.2 °F 94% 30.17 in 10.0 mi NNE 5.8 mph - N/A   Overcast
1:55 AM 64.0 °F 62.2 °F 94% 30.17 in 10.0 mi North 5.8 mph - N/A   Overcast
2:15 AM 64.0 °F 62.1 °F 93% 30.17 in 10.0 mi NNE 4.6 mph - N/A   Overcast
2:35 AM 63.9 °F 62.1 °F 94% 30.18 in 10.0 mi NNE 3.5 mph - N/A   Overcast
2:55 AM 64.2 °F 62.1 °F 93% 30.17 in 10.0 mi NNE 5.8 mph - N/A   Overcast
3:15 AM 64.2 °F 62.1 °F 93% 30.17 in 10.0 mi NE 5.8 mph - N/A   Overcast
3:35 AM 64.0 °F 61.9 °F 93% 30.17 in 10.0 mi North 3.5 mph - N/A   Overcast
3:55 AM 63.9 °F 61.9 °F 93% 30.17 in 10.0 mi North 3.5 mph - N/A   Overcast
4:15 AM 63.9 °F 61.9 °F 93% 30.17 in 10.0 mi NNE 3.5 mph - N/A   Overcast
4:35 AM 63.7 °F 61.9 °F 94% 30.17 in 10.0 mi NNE 5.8 mph - N/A   Overcast
4:55 AM 63.7 °F 61.9 °F 94% 30.17 in 10.0 mi North 4.6 mph - N/A   Overcast
5:15 AM 63.7 °F 61.7 °F 93% 30.18 in 10.0 mi NNE 5.8 mph - N/A   Overcast
5:35 AM 63.7 °F 61.7 °F 93% 30.18 in 10.0 mi NNE 5.8 mph - N/A   Overcast
5:55 AM 63.7 °F 61.7 °F 93% 30.18 in 10.0 mi NNE 3.5 mph - N/A   Overcast
6:15 AM 63.7 °F 61.7 °F 93% 30.18 in 10.0 mi NE 4.6 mph - N/A   Overcast
6:35 AM 63.5 °F 61.7 °F 94% 30.18 in 10.0 mi NNE 3.5 mph - N/A   Overcast
6:55 AM 63.5 °F 61.7 °F 94% 30.19 in 10.0 mi NNW 4.6 mph - N/A   Overcast
7:15 AM 63.7 °F 61.7 °F 93% 30.21 in 10.0 mi North 5.8 mph - N/A   Overcast
7:35 AM 63.7 °F 61.7 °F 93% 30.21 in 10.0 mi North 4.6 mph - N/A   Overcast
7:55 AM 63.7 °F 61.5 °F 93% 30.21 in 10.0 mi North 5.8 mph - N/A   Overcast
8:15 AM 63.7 °F 61.7 °F 93% 30.22 in 10.0 mi North 5.8 mph - N/A   Overcast
8:35 AM 63.7 °F 61.7 °F 93% 30.22 in 10.0 mi NNW 8.1 mph - N/A   Overcast
8:55 AM 62.6 °F 61.3 °F 96% 30.22 in 4.0 mi North 6.9 mph - N/A   Overcast
9:15 AM 62.1 °F 61.0 °F 96% 30.23 in 2.5 mi NNW 9.2 mph - N/A   Overcast
9:35 AM 61.5 °F 60.8 °F 97% 30.24 in 2.0 mi NNW 10.4 mph - N/A Rain Rain
9:55 AM 60.8 °F 59.9 °F 97% 30.24 in 2.5 mi North 8.1 mph - N/A   Light Drizzle
10:15 AM 60.1 °F 59.0 °F 96% 30.24 in 2.5 mi North 6.9 mph - N/A   Overcast
10:35 AM 59.0 °F 57.6 °F 95% 30.25 in 5.0 mi North 10.4 mph - N/A   Overcast
10:55 AM 59.0 °F 57.4 °F 94% 30.24 in 7.0 mi NNW 9.2 mph - N/A   Overcast
11:15 AM 58.3 °F 56.3 °F 93% 30.24 in 10.0 mi North 6.9 mph 16.1 mph N/A   Overcast
11:35 AM 57.4 °F 55.6 °F 94% 30.24 in 7.0 mi NNW 9.2 mph - N/A   Overcast
11:55 AM 56.8 °F 55.0 °F 94% 30.24 in 7.0 mi NNW 11.5 mph - N/A   Overcast
12:15 PM 56.3 °F 54.5 °F 94% 30.23 in 7.0 mi NNW 10.4 mph 16.1 mph N/A   Overcast
12:35 PM 56.3 °F 53.6 °F 91% 30.23 in 10.0 mi North 9.2 mph 17.3 mph N/A   Overcast
12:55 PM 56.1 °F 53.2 °F 90% 30.23 in 10.0 mi NNW 10.4 mph 16.1 mph N/A   Overcast
1:15 PM 55.8 °F 53.1 °F 91% 30.22 in 10.0 mi North 9.2 mph - N/A   Overcast
1:35 PM 54.9 °F 52.3 °F 91% 30.22 in 10.0 mi NNW 9.2 mph 17.3 mph N/A   Overcast
1:55 PM 54.7 °F 52.0 °F 91% 30.21 in 10.0 mi NNW 10.4 mph 17.3 mph N/A   Overcast
2:15 PM 55.0 °F 51.8 °F 89% 30.22 in 10.0 mi North 13.8 mph - N/A   Overcast
2:35 PM 54.9 °F 51.4 °F 88% 30.22 in 10.0 mi North 10.4 mph 17.3 mph N/A   Overcast
2:55 PM 53.6 °F 52.0 °F 94% 30.23 in 5.0 mi North 8.1 mph - N/A Rain Rain
3:15 PM 53.1 °F 51.8 °F 95% 30.24 in 7.0 mi NNW 9.2 mph - N/A   Light Drizzle
3:35 PM 52.7 °F 51.4 °F 95% 30.23 in 4.0 mi North 8.1 mph - N/A   Light Drizzle
3:55 PM 52.7 °F 51.1 °F 94% 30.24 in 7.0 mi North 9.2 mph 18.4 mph 0.01 in   Drizzle
4:15 PM 52.5 °F 50.9 °F 94% 30.24 in 10.0 mi North 8.1 mph 16.1 mph N/A   Overcast
4:35 PM 52.2 °F 50.7 °F 95% 30.25 in 10.0 mi North 11.5 mph 17.3 mph N/A   Overcast
4:55 PM 52.2 °F 50.2 °F 93% 30.25 in 10.0 mi North 10.4 mph 17.3 mph N/A   Overcast
5:15 PM 52.0 °F 50.0 °F 93% 30.25 in 10.0 mi North 9.2 mph 17.3 mph N/A   Overcast
5:35 PM 52.2 °F 49.5 °F 91% 30.26 in 10.0 mi North 8.1 mph 16.1 mph N/A   Overcast
5:55 PM 51.8 °F 49.1 °F 90% 30.27 in 10.0 mi North 11.5 mph 17.3 mph N/A   Overcast
6:15 PM 51.8 °F 49.1 °F 90% 30.27 in 10.0 mi North 6.9 mph - N/A   Overcast
6:35 PM 51.8 °F 48.4 °F 88% 30.28 in 10.0 mi North 8.1 mph - N/A   Overcast
6:55 PM 51.3 °F 48.2 °F 89% 30.28 in 10.0 mi North 8.1 mph - N/A   Overcast
7:15 PM 51.3 °F 47.7 °F 87% 30.29 in 10.0 mi North 6.9 mph - N/A   Overcast
7:35 PM 51.1 °F 47.7 °F 88% 30.30 in 10.0 mi North 6.9 mph - N/A   Overcast
7:55 PM 51.1 °F 47.7 °F 88% 30.29 in 10.0 mi NNE 9.2 mph 16.1 mph N/A   Overcast
8:15 PM 50.9 °F 47.1 °F 87% 30.29 in 10.0 mi North 9.2 mph 20.7 mph N/A   Overcast
8:35 PM 50.9 °F 46.6 °F 85% 30.31 in 10.0 mi North 10.4 mph - N/A   Overcast
8:55 PM 50.5 °F 45.0 °F 81% 30.30 in 10.0 mi North 9.2 mph 20.7 mph N/A   Mostly Cloudy
9:15 PM 50.2 °F 45.1 °F 83% 30.31 in 10.0 mi North 8.1 mph - N/A   Overcast
9:35 PM 50.0 °F 45.5 °F 85% 30.32 in 10.0 mi North 9.2 mph 19.6 mph N/A   Overcast
9:55 PM 49.6 °F 44.6 °F 83% 30.32 in 10.0 mi North 10.4 mph 20.7 mph N/A   Overcast
10:15 PM 49.5 °F 43.0 °F 78% 30.33 in 10.0 mi North 8.1 mph 19.6 mph N/A   Mostly Cloudy
10:35 PM 49.3 °F 42.6 °F 78% 30.33 in 10.0 mi North 11.5 mph 20.7 mph N/A   Mostly Cloudy
10:55 PM 49.1 °F 41.9 °F 76% 30.34 in 10.0 mi North 8.1 mph - N/A   Scattered Clouds
11:15 PM 48.6 °F 41.0 °F 75% 30.34 in 10.0 mi NNE 11.5 mph 24.2 mph N/A   Scattered Clouds
11:35 PM 48.2 °F 39.7 °F 73% 30.34 in 10.0 mi North 9.2 mph 17.3 mph N/A   Clear
11:55 PM 47.8 °F 39.4 °F 72% 30.34 in 10.0 mi NNE 10.4 mph - N/A   Clear